AVA79 TNCC-SKBO

Flight info

Callsign AVA79
Flight time 1h 30m
Altitude 38000
Route EMAPA1K EMAPA DCT ALCOT UG431 STB DCT BUV/N0403F240 A567 VULAM VULAM4F
Aircraft A320/M-SDE3FGHIRWY/LB1

Departure

Time 2026-04-22 17:13
Airport Hato International Airport (TNCC)

Arrival

Time 2026-04-22 18:43
Airport El Dorado International Airport (SKBO)
Time Latitude Longitude Altitude Speed Heading
2026-04-22 16:41 12.18546 -68.95681 43 ft 0 kts 192°
2026-04-22 17:03 12.18555 -68.95679 43 ft 4 kts 192°
2026-04-22 17:03 12.18582 -68.95673 40 ft 4 kts 196°
2026-04-22 17:03 12.18607 -68.95664 43 ft 4 kts 203°
2026-04-22 17:03 12.18631 -68.95651 43 ft 4 kts 227°
2026-04-22 17:04 12.18639 -68.95634 41 ft 1 kts 282°
2026-04-22 17:09 12.18646 -68.95666 42 ft 8 kts 282°
2026-04-22 17:09 12.18663 -68.95746 42 ft 15 kts 282°
2026-04-22 17:10 12.18687 -68.95862 43 ft 20 kts 282°
2026-04-22 17:10 12.18721 -68.96014 43 ft 24 kts 283°
2026-04-22 17:10 12.18754 -68.96185 43 ft 25 kts 283°
2026-04-22 17:10 12.18789 -68.96349 43 ft 25 kts 283°
2026-04-22 17:11 12.18827 -68.96545 42 ft 31 kts 280°
2026-04-22 17:11 12.18875 -68.96765 41 ft 26 kts 282°
2026-04-22 17:11 12.18939 -68.96811 40 ft 14 kts
2026-04-22 17:11 12.19035 -68.96790 41 ft 13 kts 11°
2026-04-22 17:12 12.19053 -68.96762 41 ft 7 kts 100°
2026-04-22 17:12 12.19006 -68.96531 44 ft 68 kts 102°
2026-04-22 17:12 12.18866 -68.95860 42 ft 125 kts 102°
2026-04-22 17:12 12.18657 -68.94831 128 ft 162 kts 98°
2026-04-22 17:13 12.18464 -68.93709 802 ft 160 kts 101°
2026-04-22 17:13 12.18235 -68.92589 1421 ft 165 kts 102°
2026-04-22 17:13 12.17968 -68.91370 1819 ft 187 kts 102°
2026-04-22 17:13 12.17668 -68.90003 2171 ft 207 kts 102°
2026-04-22 17:14 12.17082 -68.88603 2551 ft 231 kts 130°
2026-04-22 17:14 12.15622 -68.87765 3005 ft 259 kts 168°
2026-04-22 17:14 12.13816 -68.88021 3767 ft 274 kts 204°
2026-04-22 17:14 12.12395 -68.89329 4651 ft 281 kts 237°
2026-04-22 17:15 12.11805 -68.90511 5224 ft 284 kts 248°
2026-04-22 17:15 12.10897 -68.93067 6429 ft 288 kts 250°
2026-04-22 17:15 12.10229 -68.94994 7312 ft 289 kts 250°
2026-04-22 17:15 12.09556 -68.96940 8180 ft 291 kts 251°
2026-04-22 17:16 12.08782 -68.98860 9035 ft 293 kts 244°
2026-04-22 17:16 12.07808 -69.00704 9873 ft 297 kts 240°
2026-04-22 17:16 12.06724 -69.02549 10356 ft 312 kts 239°
2026-04-22 17:16 12.05539 -69.04507 10578 ft 335 kts 239°
2026-04-22 17:17 12.04291 -69.06580 11046 ft 347 kts 239°
2026-04-22 17:17 12.03045 -69.08684 11679 ft 353 kts 240°
2026-04-22 17:17 12.01781 -69.10856 12345 ft 358 kts 240°
2026-04-22 17:17 12.00518 -69.13059 13025 ft 361 kts 240°
2026-04-22 17:18 11.99246 -69.15292 13686 ft 366 kts 240°
2026-04-22 17:18 11.97962 -69.17546 14255 ft 370 kts 240°
2026-04-22 17:18 11.96662 -69.19828 14838 ft 373 kts 240°
2026-04-22 17:18 11.95259 -69.22062 15462 ft 375 kts 233°
2026-04-22 17:19 11.91446 -69.25767 16619 ft 383 kts 221°
2026-04-22 17:19 11.87336 -69.29319 17707 ft 390 kts 222°
2026-04-22 17:20 11.83182 -69.32931 18703 ft 397 kts 222°
2026-04-22 17:20 11.78932 -69.36634 19686 ft 401 kts 221°
2026-04-22 17:21 11.76801 -69.38483 20187 ft 403 kts 221°
2026-04-22 17:21 11.72533 -69.42179 21147 ft 407 kts 221°
2026-04-22 17:22 11.68201 -69.45932 22115 ft 410 kts 220°
2026-04-22 17:22 11.66025 -69.47819 22579 ft 412 kts 221°
2026-04-22 17:22 11.61624 -69.51637 23457 ft 418 kts 220°
2026-04-22 17:23 11.59402 -69.53563 23835 ft 420 kts 220°
2026-04-22 17:23 11.54924 -69.57441 24578 ft 424 kts 220°
2026-04-22 17:23 11.52672 -69.59390 24988 ft 425 kts 220°
2026-04-22 17:24 11.50408 -69.61352 25358 ft 427 kts 220°
2026-04-22 17:24 11.48139 -69.63318 25722 ft 429 kts 220°
2026-04-22 17:24 11.45864 -69.65286 26106 ft 430 kts 221°
2026-04-22 17:24 11.43571 -69.67266 26460 ft 432 kts 221°
2026-04-22 17:25 11.41278 -69.69248 26859 ft 433 kts 221°
2026-04-22 17:25 11.39019 -69.71243 27206 ft 435 kts 222°
2026-04-22 17:25 11.36742 -69.73338 27557 ft 437 kts 223°
2026-04-22 17:25 11.34512 -69.75444 27935 ft 438 kts 223°
2026-04-22 17:26 11.32280 -69.77566 28254 ft 440 kts 224°
2026-04-22 17:26 11.30058 -69.79672 28563 ft 443 kts 223°
2026-04-22 17:26 11.27787 -69.81806 28851 ft 446 kts 223°
2026-04-22 17:26 11.25492 -69.83948 29161 ft 448 kts 223°
2026-04-22 17:27 11.23184 -69.86092 29468 ft 450 kts 223°
2026-04-22 17:27 11.20861 -69.88246 29738 ft 453 kts 223°
2026-04-22 17:27 11.18528 -69.90412 30013 ft 455 kts 223°
2026-04-22 17:27 11.16182 -69.92593 30272 ft 457 kts 223°
2026-04-22 17:28 11.13829 -69.94777 30534 ft 458 kts 223°
2026-04-22 17:28 11.11465 -69.96967 30804 ft 460 kts 223°
2026-04-22 17:28 11.09100 -69.99161 31067 ft 461 kts 223°
2026-04-22 17:28 11.06733 -70.01359 31438 ft 459 kts 223°
2026-04-22 17:29 11.04375 -70.03553 31830 ft 457 kts 223°
2026-04-22 17:29 11.02034 -70.05736 32219 ft 456 kts 223°
2026-04-22 17:29 10.99703 -70.07917 32608 ft 454 kts 223°
2026-04-22 17:29 10.97378 -70.10093 32998 ft 453 kts 223°
2026-04-22 17:30 10.95092 -70.12229 33381 ft 451 kts 223°
2026-04-22 17:30 10.92783 -70.14383 33786 ft 449 kts 222°
2026-04-22 17:30 10.90482 -70.16527 34152 ft 448 kts 222°
2026-04-22 17:30 10.88185 -70.18666 34487 ft 447 kts 222°
2026-04-22 17:31 10.85894 -70.20796 34815 ft 446 kts 222°
2026-04-22 17:31 10.83609 -70.22920 35132 ft 445 kts 222°
2026-04-22 17:31 10.81324 -70.25047 35447 ft 444 kts 221°
2026-04-22 17:31 10.79048 -70.27168 35772 ft 443 kts 221°
2026-04-22 17:32 10.76780 -70.29287 36079 ft 442 kts 221°
2026-04-22 17:32 10.74515 -70.31401 36388 ft 441 kts 221°
2026-04-22 17:32 10.72255 -70.33506 36682 ft 440 kts 221°
2026-04-22 17:32 10.69996 -70.35607 36968 ft 440 kts 221°
2026-04-22 17:33 10.68503 -70.36996 37148 ft 439 kts 221°
2026-04-22 17:33 10.65498 -70.39805 37509 ft 438 kts 221°
2026-04-22 17:33 10.63260 -70.41905 37757 ft 438 kts 220°
2026-04-22 17:33 10.61013 -70.44001 37935 ft 438 kts 220°
2026-04-22 17:34 10.56513 -70.48170 37972 ft 437 kts 220°
2026-04-22 17:34 10.52051 -70.52295 37972 ft 436 kts 220°
2026-04-22 17:35 10.47555 -70.56450 37973 ft 436 kts 220°
2026-04-22 17:35 10.43061 -70.60609 37972 ft 436 kts 220°
2026-04-22 17:36 10.38575 -70.64764 37976 ft 436 kts 220°
2026-04-22 17:36 10.34093 -70.68917 37977 ft 436 kts 220°
2026-04-22 17:37 10.29603 -70.73077 37985 ft 437 kts 220°
2026-04-22 17:37 10.25139 -70.77202 37985 ft 437 kts 220°
2026-04-22 17:38 10.20613 -70.81383 37984 ft 437 kts 220°
2026-04-22 17:38 10.16137 -70.85507 37987 ft 437 kts 220°
2026-04-22 17:39 10.11635 -70.89659 37979 ft 437 kts 220°
2026-04-22 17:40 10.04898 -70.95887 37978 ft 437 kts 220°
2026-04-22 17:40 10.00407 -71.00035 37975 ft 437 kts 220°
2026-04-22 17:41 9.95912 -71.04186 37964 ft 437 kts 220°
2026-04-22 17:41 9.91413 -71.08337 37960 ft 437 kts 220°
2026-04-22 17:42 9.86903 -71.12486 37961 ft 438 kts 220°
2026-04-22 17:42 9.83157 -71.15936 37960 ft 438 kts 220°
2026-04-22 17:43 9.77882 -71.20797 37963 ft 438 kts 220°
2026-04-22 17:43 9.73368 -71.24944 37965 ft 438 kts 220°
2026-04-22 17:44 9.68878 -71.29057 37964 ft 438 kts 220°
2026-04-22 17:44 9.64364 -71.33213 37961 ft 438 kts 220°
2026-04-22 17:45 9.59851 -71.37376 37961 ft 439 kts 220°
2026-04-22 17:45 9.55328 -71.41533 37961 ft 439 kts 220°
2026-04-22 17:46 9.50804 -71.45693 37960 ft 439 kts 220°
2026-04-22 17:46 9.46285 -71.49852 37962 ft 439 kts 220°
2026-04-22 17:47 9.41786 -71.53984 37966 ft 439 kts 220°
2026-04-22 17:47 9.37256 -71.58139 37965 ft 439 kts 220°
2026-04-22 17:48 9.33465 -71.61618 37963 ft 439 kts 220°
2026-04-22 17:48 9.28197 -71.66442 37961 ft 439 kts 220°
2026-04-22 17:49 9.24419 -71.69905 37960 ft 439 kts 220°
2026-04-22 17:49 9.19892 -71.74058 37960 ft 439 kts 220°
2026-04-22 17:50 9.15356 -71.78211 37962 ft 440 kts 220°
2026-04-22 17:50 9.10819 -71.82364 37962 ft 440 kts 220°
2026-04-22 17:51 9.06283 -71.86516 37958 ft 440 kts 220°
2026-04-22 17:51 9.01771 -71.90642 37958 ft 440 kts 220°
2026-04-22 17:52 8.97070 -71.94568 37960 ft 436 kts 209°
2026-04-22 17:52 8.91780 -71.97559 37956 ft 436 kts 207°
2026-04-22 17:53 8.86472 -72.00539 37949 ft 436 kts 207°
2026-04-22 17:53 8.81168 -72.03520 37951 ft 436 kts 207°
2026-04-22 17:54 8.75863 -72.06499 37959 ft 436 kts 207°
2026-04-22 17:54 8.70576 -72.09458 37962 ft 436 kts 207°
2026-04-22 17:55 8.65263 -72.12432 37960 ft 436 kts 207°
2026-04-22 17:55 8.59954 -72.15415 37960 ft 437 kts 207°
2026-04-22 17:56 8.54633 -72.18394 37959 ft 437 kts 207°
2026-04-22 17:56 8.49317 -72.21366 37984 ft 437 kts 207°
2026-04-22 17:57 8.43992 -72.24352 37987 ft 437 kts 207°
2026-04-22 17:57 8.38668 -72.27338 37971 ft 437 kts 207°
2026-04-22 17:58 8.33381 -72.30295 37985 ft 437 kts 207°
2026-04-22 17:58 8.28061 -72.33269 37974 ft 437 kts 206°
2026-04-22 17:59 8.22733 -72.36252 38006 ft 438 kts 206°
2026-04-22 17:59 8.17404 -72.39228 38022 ft 438 kts 206°
2026-04-22 18:00 8.12972 -72.41702 38024 ft 438 kts 206°
2026-04-22 18:00 8.06756 -72.45171 38064 ft 441 kts 207°
2026-04-22 18:01 8.01371 -72.48178 38089 ft 442 kts 207°
2026-04-22 18:01 7.96005 -72.51175 38080 ft 440 kts 207°
2026-04-22 18:02 7.90642 -72.54173 38069 ft 440 kts 207°
2026-04-22 18:02 7.85280 -72.57164 38064 ft 440 kts 207°
2026-04-22 18:03 7.79910 -72.60156 38064 ft 441 kts 207°
2026-04-22 18:03 7.74545 -72.63153 38061 ft 441 kts 207°
2026-04-22 18:04 7.69178 -72.66143 38061 ft 441 kts 207°
2026-04-22 18:04 7.63807 -72.69132 38089 ft 441 kts 207°
2026-04-22 18:05 7.58440 -72.72121 38079 ft 441 kts 207°
2026-04-22 18:05 7.53068 -72.75115 38090 ft 442 kts 206°
2026-04-22 18:06 7.47718 -72.78097 38095 ft 442 kts 207°
2026-04-22 18:06 7.42330 -72.81096 38099 ft 443 kts 207°
2026-04-22 18:07 7.36927 -72.84098 38101 ft 443 kts 207°
2026-04-22 18:07 7.31521 -72.87105 38100 ft 443 kts 206°
2026-04-22 18:08 7.26127 -72.90106 38107 ft 443 kts 207°
2026-04-22 18:08 7.20732 -72.93109 38100 ft 442 kts 205°
2026-04-22 18:09 7.15370 -72.96089 38061 ft 442 kts 205°
2026-04-22 18:09 7.09981 -72.99080 38066 ft 442 kts 205°
2026-04-22 18:10 7.04595 -73.02067 38058 ft 442 kts 206°
2026-04-22 18:10 6.99209 -73.05059 38058 ft 442 kts 206°
2026-04-22 18:11 6.93819 -73.08056 38045 ft 442 kts 206°
2026-04-22 18:11 6.88434 -73.11047 38017 ft 442 kts 206°
2026-04-22 18:12 6.83043 -73.14039 38008 ft 442 kts 206°
2026-04-22 18:12 6.78527 -73.16541 38010 ft 442 kts 205°
2026-04-22 18:13 6.72261 -73.20015 38009 ft 442 kts 205°
2026-04-22 18:13 6.66871 -73.23006 38006 ft 442 kts 206°
2026-04-22 18:14 6.61482 -73.25993 37999 ft 442 kts 206°
2026-04-22 18:14 6.56089 -73.28985 37997 ft 442 kts 206°
2026-04-22 18:15 6.50697 -73.31971 37986 ft 443 kts 206°
2026-04-22 18:15 6.45285 -73.34969 37982 ft 444 kts 206°
2026-04-22 18:16 6.39877 -73.37961 37986 ft 444 kts 206°
2026-04-22 18:16 6.34469 -73.40960 37991 ft 444 kts 206°
2026-04-22 18:16 6.31758 -73.42463 37792 ft 445 kts 206°
2026-04-22 18:17 6.29052 -73.43960 37523 ft 444 kts 206°
2026-04-22 18:17 6.26342 -73.45459 37282 ft 444 kts 206°
2026-04-22 18:17 6.23625 -73.46962 37030 ft 445 kts 206°
2026-04-22 18:17 6.20915 -73.48462 36775 ft 445 kts 206°
2026-04-22 18:18 6.18196 -73.49970 36534 ft 446 kts 206°
2026-04-22 18:18 6.15477 -73.51478 36282 ft 447 kts 206°
2026-04-22 18:18 6.12751 -73.52990 36059 ft 447 kts 206°
2026-04-22 18:18 6.10024 -73.54499 35820 ft 448 kts 206°
2026-04-22 18:19 6.07291 -73.56008 35578 ft 449 kts 206°
2026-04-22 18:19 6.04554 -73.57518 35343 ft 449 kts 206°
2026-04-22 18:19 6.01808 -73.59032 35107 ft 450 kts 206°
2026-04-22 18:19 5.99058 -73.60546 34877 ft 451 kts 206°
2026-04-22 18:20 5.96305 -73.62066 34491 ft 452 kts 206°
2026-04-22 18:20 5.93567 -73.63578 33520 ft 459 kts 207°
2026-04-22 18:20 5.90756 -73.65130 32826 ft 458 kts 207°
2026-04-22 18:20 5.87980 -73.66666 32260 ft 454 kts 207°
2026-04-22 18:21 5.85221 -73.68193 31664 ft 451 kts 207°
2026-04-22 18:21 5.82488 -73.69706 31083 ft 448 kts 207°
2026-04-22 18:21 5.79769 -73.71211 30500 ft 446 kts 207°
2026-04-22 18:21 5.77056 -73.72710 29892 ft 444 kts 208°
2026-04-22 18:22 5.74353 -73.74202 29297 ft 440 kts 207°
2026-04-22 18:22 5.71682 -73.75677 28724 ft 436 kts 207°
2026-04-22 18:22 5.69037 -73.77139 28170 ft 432 kts 208°
2026-04-22 18:22 5.66414 -73.78587 27619 ft 428 kts 208°
2026-04-22 18:23 5.63815 -73.80022 27069 ft 424 kts 208°
2026-04-22 18:23 5.61244 -73.81442 26535 ft 420 kts 208°
2026-04-22 18:23 5.58690 -73.82853 26033 ft 416 kts 208°
2026-04-22 18:24 5.54001 -73.86101 25048 ft 408 kts 226°
2026-04-22 18:24 5.52246 -73.88316 24553 ft 404 kts 238°
2026-04-22 18:24 5.49822 -73.93352 23561 ft 399 kts 246°
2026-04-22 18:25 5.48672 -73.95882 23004 ft 396 kts 246°
2026-04-22 18:25 5.47530 -73.98383 22506 ft 392 kts 245°
2026-04-22 18:25 5.46402 -74.00860 22006 ft 389 kts 245°
2026-04-22 18:26 5.44178 -74.05753 21030 ft 383 kts 245°
2026-04-22 18:26 5.43075 -74.08179 20513 ft 381 kts 245°
2026-04-22 18:26 5.41978 -74.10591 20023 ft 380 kts 245°
2026-04-22 18:26 5.40879 -74.13000 19527 ft 379 kts 245°
2026-04-22 18:27 5.39785 -74.15400 19028 ft 377 kts 245°
2026-04-22 18:27 5.38696 -74.17789 18544 ft 376 kts 245°
2026-04-22 18:27 5.37464 -74.20078 18296 ft 367 kts 233°
2026-04-22 18:27 5.35730 -74.21872 18186 ft 353 kts 217°
2026-04-22 18:28 5.33637 -74.23062 18100 ft 340 kts 204°
2026-04-22 18:28 5.31508 -74.24002 18022 ft 329 kts 204°
2026-04-22 18:28 5.29438 -74.24908 17947 ft 329 kts 204°
2026-04-22 18:28 5.27312 -74.25835 17891 ft 329 kts 204°
2026-04-22 18:29 5.25241 -74.26736 17818 ft 329 kts 204°
2026-04-22 18:29 5.23148 -74.27650 17743 ft 329 kts 204°
2026-04-22 18:29 5.21026 -74.28579 17668 ft 328 kts 204°
2026-04-22 18:29 5.18968 -74.29480 17594 ft 327 kts 204°
2026-04-22 18:30 5.16882 -74.30393 17522 ft 327 kts 204°
2026-04-22 18:30 5.12715 -74.32215 17383 ft 326 kts 204°
2026-04-22 18:30 5.10651 -74.33115 17316 ft 323 kts 204°
2026-04-22 18:31 5.08590 -74.34015 17246 ft 323 kts 204°
2026-04-22 18:31 5.06524 -74.34917 17180 ft 325 kts 204°
2026-04-22 18:31 5.04456 -74.35816 17066 ft 323 kts 204°
2026-04-22 18:31 5.02394 -74.36713 16963 ft 323 kts 204°
2026-04-22 18:32 5.01006 -74.37318 16787 ft 320 kts 204°
2026-04-22 18:32 4.98355 -74.38477 16629 ft 308 kts 204°
2026-04-22 18:32 4.96419 -74.39324 16503 ft 300 kts 204°
2026-04-22 18:32 4.94523 -74.40152 16394 ft 293 kts 204°
2026-04-22 18:33 4.92582 -74.40750 16303 ft 293 kts 189°
2026-04-22 18:33 4.90543 -74.40779 16179 ft 296 kts 174°
2026-04-22 18:33 4.89170 -74.40460 15822 ft 304 kts 160°
2026-04-22 18:33 4.87278 -74.39522 15613 ft 302 kts 154°
2026-04-22 18:34 4.85428 -74.38542 15375 ft 300 kts 154°
2026-04-22 18:34 4.83604 -74.37593 15119 ft 299 kts 154°
2026-04-22 18:34 4.81756 -74.36642 14864 ft 298 kts 154°
2026-04-22 18:34 4.79914 -74.35696 14653 ft 297 kts 154°
2026-04-22 18:35 4.78092 -74.34760 14535 ft 290 kts 154°
2026-04-22 18:35 4.76319 -74.33845 14434 ft 284 kts 153°
2026-04-22 18:35 4.74582 -74.32945 14300 ft 279 kts 153°
2026-04-22 18:35 4.72863 -74.32056 14113 ft 277 kts 153°
2026-04-22 18:36 4.71156 -74.31173 13860 ft 277 kts 153°
2026-04-22 18:36 4.69496 -74.30151 13438 ft 280 kts 141°
2026-04-22 18:36 4.68184 -74.28819 13424 ft 256 kts 128°
2026-04-22 18:36 4.67097 -74.27450 13342 ft 248 kts 129°
2026-04-22 18:37 4.66022 -74.26118 13241 ft 244 kts 129°
2026-04-22 18:37 4.64952 -74.24799 13154 ft 244 kts 129°
2026-04-22 18:37 4.63881 -74.23480 13039 ft 242 kts 130°
2026-04-22 18:37 4.62848 -74.22148 12885 ft 243 kts 123°
2026-04-22 18:38 4.62061 -74.20655 12515 ft 239 kts 112°
2026-04-22 18:38 4.61604 -74.19095 12153 ft 228 kts 102°
2026-04-22 18:38 4.61272 -74.17584 11854 ft 217 kts 103°
2026-04-22 18:39 4.60641 -74.14820 11327 ft 187 kts 103°
2026-04-22 18:39 4.60361 -74.13593 11092 ft 175 kts 102°
2026-04-22 18:39 4.60272 -74.12392 10858 ft 171 kts 85°
2026-04-22 18:39 4.60524 -74.11238 10626 ft 169 kts 68°
2026-04-22 18:40 4.61077 -74.10216 10406 ft 167 kts 51°
2026-04-22 18:40 4.61888 -74.09397 10190 ft 165 kts 34°
2026-04-22 18:40 4.62883 -74.08844 9954 ft 163 kts 18°
2026-04-22 18:40 4.63978 -74.08590 9742 ft 162 kts
2026-04-22 18:41 4.65096 -74.08646 9579 ft 161 kts 347°
2026-04-22 18:41 4.66145 -74.09009 9334 ft 159 kts 330°
2026-04-22 18:41 4.67027 -74.09625 9072 ft 155 kts 315°
2026-04-22 18:41 4.67734 -74.10423 8885 ft 151 kts 302°
2026-04-22 18:42 4.68338 -74.11291 8713 ft 153 kts 300°
2026-04-22 18:42 4.69002 -74.12129 8468 ft 151 kts 300°
2026-04-22 18:42 4.69634 -74.12949 8365 ft 138 kts 306°
2026-04-22 18:42 4.70113 -74.13589 8366 ft 90 kts 307°
2026-04-22 18:43 4.70368 -74.13923 8365 ft 41 kts 307°
2026-04-22 18:43 4.70524 -74.14137 8366 ft 36 kts 309°
2026-04-22 18:43 4.70653 -74.14303 8367 ft 15 kts 290°
2026-04-22 18:43 4.70599 -74.14330 8367 ft 9 kts 173°
2026-04-22 18:44 4.70536 -74.14322 8366 ft 10 kts 172°
2026-04-22 18:44 4.70465 -74.14312 8366 ft 11 kts 172°
2026-04-22 18:44 4.70395 -74.14325 8366 ft 11 kts 214°
2026-04-22 18:44 4.70335 -74.14324 8366 ft 9 kts 141°
2026-04-22 18:45 4.70298 -74.14278 8366 ft 7 kts 127°
2026-04-22 18:45 4.70272 -74.14241 8366 ft 7 kts 124°
2026-04-22 18:45 4.70222 -74.14202 8366 ft 10 kts 208°
2026-04-22 18:45 4.70168 -74.14211 8366 ft 10 kts 160°
2026-04-22 18:46 4.70086 -74.14114 8366 ft 22 kts 128°
2026-04-22 18:46 4.69987 -74.13982 8366 ft 24 kts 127°
2026-04-22 18:46 4.69903 -74.13872 8366 ft 2 kts 134°
2026-04-22 18:46 4.69871 -74.13889 8366 ft 8 kts 220°
2026-04-22 18:47 4.69836 -74.13915 8366 ft 0 kts 216°
2026-04-22 18:47 4.69835 -74.13915 8366 ft 0 kts 216°